Weather History for London / Heathrow Airport, United Kingdom

Change the Weather History Date:

Sunday, January 26, 2014

  Actual Average Record
Temperature  
Mean Temperature 42 °F -  
Max Temperature 49 °F 46 °F - ()
Min Temperature 36 °F 35 °F - ()
Degree Days  
Heating Degree Days 22    
Moisture  
Dew Point 37 °F    
Average Humidity 80    
Maximum Humidity 93    
Minimum Humidity 62    
Precipitation  
Precipitation 0.20 in - - ()
Sea Level Pressure  
Sea Level Pressure 29.58 in    
Wind  
Wind Speed 11 mph ()    
Max Wind Speed 23 mph    
Max Gust Speed 24 mph    
Visibility 8.8 miles    
Events Rain    
T = Trace of Precipitation, MM = Missing Value Source: Averaged Metar Reports

Daily Weather History Graph

Daily Weather History Graph

Search for Another Location

Airport:

Trip Planner

Search our weather history database for the weather conditions in past years. The results will help you decide how hot, cold, wet, or windy it might be!

Date:

Astronomy

Jan. 26, 2014 Rise Set
Actual Time 7:48 AM GMT 4:40 PM GMT
Civil Twilight 7:11 AM GMT 5:17 PM GMT
Nautical Twilight 6:31 AM GMT 5:58 PM GMT
Astronomical Twilight 5:51 AM GMT 6:37 PM GMT
Moon 3:11 AM GMT (1/26) 12:14 PM GMT (1/26)
Length of Visible Light 10h 05m
Length of Day
8h 51m
Waning Crescent, 26% of the Moon is Illuminated
Jan 26
Waning Crescent
Jan 30
New
Feb 6
First Quarter
Feb 14
Full
Feb 22
Last Quarter

Hourly Weather History & Observations

Time (GMT) Temp. Windchill Dew Point Humidity Pressure Visibility Wind Dir Wind Speed Gust Speed Precip Events Conditions
12:00 AM 41 °F - 32 °F 62% 29.99 in 17 mi West 6.9 mph - -   Mostly Cloudy
12:20 AM 41.0 °F 33.9 °F 33.8 °F 76% 29.98 in - West 12.7 mph - N/A   Clear
12:50 AM 41.0 °F 33.9 °F 33.8 °F 76% 30.01 in - West 12.7 mph - N/A   Clear
1:00 AM 40 °F - 33 °F 67% 30.00 in 17 mi West 12.7 mph - -   Overcast
1:20 AM 39.2 °F 33.6 °F 33.8 °F 81% 29.98 in 6.2 mi West 8.1 mph - N/A   Unknown
1:50 AM 39.2 °F - 33.8 °F 81% 29.98 in 6.2 mi Calm Calm - N/A   Unknown
2:00 AM 39 °F - 32 °F 69% 29.99 in 15 mi NE 2.3 mph - -   Overcast
2:20 AM 39.2 °F 31.6 °F 33.8 °F 81% 30.01 in 6.2 mi West 12.7 mph - N/A   Unknown
2:50 AM 41.0 °F 33.5 °F 33.8 °F 76% 30.01 in - West 13.8 mph - N/A   Clear
3:00 AM 40 °F - 33 °F 69% 30.01 in 16 mi West 16.1 mph - -   Overcast
3:20 AM 41.0 °F 32.8 °F 33.8 °F 76% 29.98 in - West 16.1 mph - N/A   Clear
3:50 AM 41.0 °F 32.8 °F 33.8 °F 76% 29.98 in - West 16.1 mph - N/A   Clear
4:00 AM 40 °F - 34 °F 73% 29.99 in 16 mi West 16.1 mph - -   Overcast
4:20 AM 41.0 °F 33.1 °F 33.8 °F 76% 29.98 in - WSW 15.0 mph - N/A   Clear
4:50 AM 41.0 °F 35.8 °F 33.8 °F 76% 29.95 in - SW 8.1 mph - N/A   Clear
5:00 AM 41 °F - 34 °F 68% 29.94 in 12 mi SW 8.1 mph - -   Overcast
5:20 AM 39.2 °F 34.2 °F 35.6 °F 87% 29.89 in - South 6.9 mph - N/A   Clear
5:50 AM 39.2 °F 32.5 °F 35.6 °F 87% 29.89 in - SSW 10.4 mph - N/A   Clear
6:00 AM 40 °F - 35 °F 75% 29.89 in 12 mi SSW 10.4 mph - -  
6:20 AM 41.0 °F 35.2 °F 35.6 °F 81% 29.86 in - SSW 9.2 mph - N/A   Clear
6:50 AM 41.0 °F 35.2 °F 35.6 °F 81% 29.86 in - SW 9.2 mph - N/A   Clear
7:00 AM 40 °F - 35 °F 74% 29.87 in 12 mi SSW 12.7 mph - -   Overcast
7:20 AM 39.2 °F 33.0 °F 35.6 °F 87% 29.80 in - SE 9.2 mph - N/A   Clear
7:50 AM 41.0 °F 35.8 °F 35.6 °F 81% 29.77 in - South 8.1 mph - N/A   Clear
8:00 AM 41 °F - 35 °F 72% 29.79 in 12 mi South 8.1 mph - -   Mostly Cloudy
8:20 AM 41.0 °F 35.8 °F 35.6 °F 81% 29.77 in - SW 8.1 mph - N/A   Clear
8:50 AM 42.8 °F 37.0 °F 35.6 °F 76% 29.74 in - South 10.4 mph - N/A   Clear
9:00 AM 43 °F - 36 °F 69% 29.75 in 15 mi South 11.5 mph - -   Overcast
9:20 AM 42.8 °F 36.2 °F 37.4 °F 81% 29.71 in 6.2 mi South 12.7 mph - N/A   Scattered Clouds
9:50 AM 44.6 °F 38.1 °F 39.2 °F 81% 29.65 in 5.6 mi South 13.8 mph - N/A Rain Light Rain
10:00 AM 45 °F - 39 °F 74% 29.67 in 5 mi South 15.0 mph - - Rain Light Rain Showers
10:20 AM 44.6 °F 37.8 °F 41.0 °F 87% 29.62 in 5.0 mi South 15.0 mph - N/A Rain Rain
10:50 AM 44.6 °F 37.4 °F 42.8 °F 93% 29.59 in 5.0 mi South 16.1 mph - N/A Rain Rain
11:00 AM 45 °F - 43 °F 88% 29.58 in 4 mi South 16.1 mph - - Rain Light Rain
11:20 AM 44.6 °F 36.9 °F 42.8 °F 93% 29.53 in 5.6 mi South 18.4 mph - N/A Rain Light Rain
11:50 AM 44.6 °F 37.2 °F 42.8 °F 93% 29.47 in 6.2 mi South 17.3 mph - N/A Rain Light Rain
12:00 PM 45 °F - 43 °F 89% 29.47 in 5 mi South 16.1 mph - - Rain Light Rain
12:20 PM 46.4 °F 39.5 °F 42.8 °F 87% 29.42 in 6.2 mi South 17.3 mph - N/A Rain Light Rain
12:50 PM 46.4 °F 39.0 °F 44.6 °F 93% 29.36 in 5.0 mi South 19.6 mph - N/A Rain Light Rain
1:00 PM 47 °F - 44 °F 87% 29.37 in 4 mi South 20.7 mph - - Rain Light Drizzle
1:20 PM 46.4 °F 39.0 °F 44.6 °F 93% 29.33 in 5.0 mi South 19.6 mph - N/A Rain Light Rain
1:50 PM 48.2 °F - 44.6 °F 87% 29.30 in 1.9 mi SSW 18.4 mph - N/A   Drizzle
2:00 PM 47 °F - 46 °F 92% 29.29 in 2 mi South 17.3 mph - - Rain Light Drizzle
2:20 PM 48.2 °F - 46.4 °F 93% 29.27 in 3.7 mi SSW 13.8 mph - N/A Rain Light Rain
2:50 PM 48.2 °F - 46.4 °F 93% 29.24 in 5.6 mi SW 12.7 mph 24.2 mph N/A Rain Light Rain
3:00 PM 49 °F - 47 °F 92% 29.26 in 17 mi SW 12.7 mph - - Rain Rain
3:20 PM 50.0 °F - 42.8 °F 76% 29.24 in 6.2 mi WSW 17.3 mph - N/A   Mostly Cloudy
3:50 PM 48.2 °F - 41.0 °F 76% 29.24 in 6.2 mi West 17.3 mph - N/A   Partly Cloudy
4:00 PM 48 °F - 42 °F 72% 29.25 in 12 mi WSW 17.3 mph - - Rain Rain
4:20 PM 48.2 °F - 41.0 °F 76% 29.24 in 6.2 mi West 15.0 mph - N/A   Scattered Clouds
4:50 PM 48.2 °F - 41.0 °F 76% 29.27 in 6.2 mi WNW 9.2 mph - N/A Rain Light Rain Showers
5:00 PM 47 °F - 39 °F 65% 29.27 in 14 mi WNW 9.2 mph - - Rain Light Rain Showers
5:20 PM 46.4 °F 40.1 °F 37.4 °F 71% 29.27 in 6.2 mi WSW 15.0 mph - N/A   Scattered Clouds
5:50 PM 44.6 °F 37.2 °F 35.6 °F 71% 29.27 in 6.2 mi WSW 17.3 mph - N/A   Partly Cloudy
6:00 PM 44 °F - 36 °F 65% 29.28 in 18 mi WSW 17.3 mph - - Rain Rain
6:20 PM 42.8 °F 34.5 °F 37.4 °F 81% 29.27 in - WSW 18.4 mph - N/A   Clear
6:50 PM 41.0 °F 32.5 °F 35.6 °F 81% 29.30 in 6.2 mi WNW 17.3 mph - N/A Rain Light Rain Showers
7:00 PM 41 °F - 35 °F 71% 29.31 in 16 mi West 23.0 mph - - Rain Rain Showers
7:20 PM 39.2 °F 30.5 °F 35.6 °F 87% 29.33 in 6.2 mi WNW 16.1 mph - N/A Rain Light Rain Showers
7:50 PM 37.4 °F 30.8 °F 33.8 °F 87% 29.33 in 6.2 mi West 9.2 mph - N/A   Partly Cloudy
8:00 PM 36 °F - 34 °F 87% 29.34 in 34 mi West 10.4 mph - - Rain Rain
8:20 PM 37.4 °F 29.8 °F 33.8 °F 87% 29.33 in 6.2 mi West 11.5 mph - N/A   Partly Cloudy
8:50 PM 37.4 °F 28.9 °F 33.8 °F 87% 29.33 in 6.2 mi West 13.8 mph - N/A   Partly Cloudy
9:00 PM 37 °F - 33 °F 82% 29.34 in 25 mi West 12.7 mph - -  
9:20 PM 39.2 °F 30.5 °F 33.8 °F 81% 29.33 in - West 16.1 mph - N/A   Clear
9:50 PM 39.2 °F 30.5 °F 33.8 °F 81% 29.33 in - West 16.1 mph - N/A   Clear
10:00 PM 38 °F - 33 °F 74% 29.34 in 19 mi WSW 15.0 mph - -  
10:20 PM 37.4 °F 29.8 °F 33.8 °F 87% 29.33 in - WSW 11.5 mph - N/A   Clear
10:50 PM 37.4 °F 29.3 °F 33.8 °F 87% 29.33 in - SW 12.7 mph - N/A   Clear
11:00 PM 37 °F - 33 °F 79% 29.34 in 17 mi SW 12.7 mph - -   Scattered Clouds
11:20 PM 39.2 °F 30.8 °F 32.0 °F 75% 29.33 in - WSW 15.0 mph - N/A   Clear
11:50 PM 37.4 °F 29.3 °F 33.8 °F 87% 29.33 in - WSW 12.7 mph - N/A   Clear